Location: Waco, TX
(31.5480°N, 97.1670°W)
Time: 10:10:27

ISS - Pass Details

Date: 12 March 2018
Orbit: 403 x 406 km, 51.6° (Epoch: 23 March)

Event Time Altitude Azimuth Distance (km) Brightness Sun altitude
Rises 08:48:09 0° 325° (NW) 2,322 -0.4 13.0°
Reaches altitude 10° 08:50:24 10° 336° (NNW) 1,460 -1.3 13.5°
Maximum altitude 08:53:19 29° 40° (NE) 763 -1.9 14.1°
Drops below altitude 10° 08:56:14 10° 103° (ESE) 1,452 2.2 14.7°
Sets 08:58:27 0° 115° (ESE) 2,307 1.7 15.2°
